Dewpoint
57 58 57 53 46 45 44 43 44 41 41 45 45 41 42 43 42 39 61 63 66 68 69 70 70 69 69 69 69 69 68 66 64 62 60 59 58 58 58 58 58 58 58 58 58 58 57 57 57
57 57 53 48 41 39 35 43 42 43 43 52 51 51 46 44 57 60 62 64 66 68 69 70 69 70 69 69 69 68 66 63 61 60 58 57 57 58 57 57 57 57 57 57 57 57 56 56 55
54 57 48 45 42 29 37 42 43 45 48 47 54 56 54 52 59 61 64 65 67 68 68 69 71 71 70 69 68 66 64 61 60 58 58 58 57 57 56 56 57 57 57 57 56 54 54 54 53
53 51 48 41 39 40 37 39 45 46 48 52 55 52 56 59 61 62 66 66 67 67 67 70 71 70 70 68 66 64 62 60 58 58 58 57 57 57 57 57 56 56 56 55 54 52 52 52 54
52 46 40 38 38 40 40 42 43 43 46 51 56 53 55 59 62 65 66 65 65 65 67 70 70 70 68 66 64 62 61 59 58 57 57 57 56 57 56 56 56 55 54 53 53 53 53 53 53
45 42 36 34 34 32 29 31 36 41 45 51 54 55 56 61 63 64 64 64 65 65 69 70 70 68 67 64 63 61 60 59 58 56 56 56 56 56 56 55 53 53 53 53 53 52 52 52 53
43 40 35 35 35 32 26 30 33 39 42 46 57 52 58 59 60 62 64 64 64 67 68 68 67 66 65 64 62 61 59 57 56 55 56 56 54 54 53 53 53 53 53 52 51 51 51 51 53
44 40 37 37 34 33 31 37 37 43 42 56 57 51 56 60 60 64 65 63 63 67 67 65 65 64 63 62 62 60 58 57 54 54 56 56 53 53 53 53 52 52 53 52 51 50 51 53 53
44 37 33 35 34 31 36 36 37 40 49 53 55 55 60 61 64 62 61 62 64 65 64 63 62 61 60 60 60 59 57 55 56 56 54 51 50 50 49 52 52 52 53 50 50 51 50 53 54
42 36 35 36 36 35 37 37 36 36 38 49 53 58 60 63 63 60 59 60 62 62 62 61 60 59 58 57 57 55 55 55 53 52 50 46 46 47 48 50 53 52 52 52 51 51 49 45 47
39 36 37 37 36 37 36 36 35 35 38 46 50 55 59 62 62 61 60 60 61 61 61 59 58 57 55 54 51 50 48 46 46 47 42 43 45 47 47 45 45 45 45 44 45 44 44 44 45
39 39 38 37 37 36 35 35 34 35 35 37 51 57 59 61 60 61 60 61 61 60 59 57 56 54 51 49 46 46 44 43 42 43 42 42 44 44 44 44 44 44 44 43 44 44 44 45 45
39 39 39 39 39 38 36 33 32 31 32 50 56 58 59 58 61 61 61 61 61 59 57 56 54 51 47 45 45 45 43 42 41 41 42 43 43 43 44 44 44 43 43 43 44 45 45 45 45
38 39 39 38 37 37 35 34 32 31 42 51 56 54 59 58 59 60 61 60 60 59 56 55 53 49 46 45 45 43 44 42 42 42 42 43 43 44 44 44 44 43 43 43 44 45 45 45 45
40 38 37 35 35 33 33 31 31 31 44 41 53 55 57 57 58 59 61 61 60 58 55 54 52 48 46 45 44 42 43 43 42 43 43 44 44 44 44 44 44 44 43 43 44 45 46 46 46
36 35 32 32 33 33 32 30 30 30 32 32 51 54 55 57 58 60 61 62 60 56 55 53 51 47 46 45 43 43 44 43 42 43 44 44 45 45 44 44 44 44 43 43 43 43 44 45 45
31 29 30 31 33 32 31 30 31 31 35 35 38 53 54 56 57 58 56 62 58 56 54 52 49 47 46 44 43 43 44 43 43 44 44 45 45 45 44 44 45 45 43 43 43 43 42 42 44
28 30 31 31 32 33 31 30 31 31 30 29 31 49 55 56 55 57 58 61 57 55 53 50 48 47 46 44 42 43 44 43 43 43 43 44 44 45 45 44 45 45 43 43 43 43 43 42 43
33 33 33 33 33 32 30 30 30 30 29 28 30 48 51 56 57 59 60 60 58 55 53 50 48 47 45 43 41 42 41 43 43 44 43 43 44 45 45 44 44 45 44 43 43 43 42 42 42
34 32 31 31 32 31 30 30 30 30 29 29 30 41 51 55 55 55 57 55 56 56 53 50 48 46 44 43 41 41 43 44 43 44 44 44 44 45 45 44 44 44 44 44 44 43 43 43 41
32 31 31 30 31 29 29 26 27 29 29 29 32 35 47 52 53 51 50 52 54 57 54 52 50 47 45 44 44 46 46 45 44 43 44 44 44 44 44 44 44 44 45 45 44 43 42 41 43
30 32 31 31 28 25 28 23 27 27 28 28 28 37 40 52 54 52 50 54 57 58 56 53 51 49 48 48 44 44 41 41 43 43 44 44 44 44 44 44 44 44 45 45 45 45 43 43 41
31 30 28 28 27 26 26 25 24 29 25 24 26 29 41 50 54 55 55 56 58 58 56 54 53 51 51 50 46 45 42 42 46 45 43 44 44 45 45 44 44 44 45 45 46 45 45 43 43
33 29 27 27 26 22 24 24 21 22 23 25 25 27 38 47 53 55 57 56 56 57 56 56 55 54 53 52 48 46 44 44 45 44 43 43 44 45 45 45 44 44 45 45 46 46 46 45 44
32 28 21 19 21 19 23 25 22 25 26 27 26 27 33 45 51 54 55 55 55 56 55 55 54 53 54 53 49 47 45 44 44 44 44 44 44 44 44 45 44 44 45 45 46 46 46 45 44
31 28 21 12 15 19 25 22 22 26 28 29 29 29 28 42 49 54 54 55 55 55 55 54 54 54 54 52 49 47 46 46 46 45 45 45 44 44 44 44 43 43 44 45 45 45 45 45 45
29 28 27 25 25 23 22 23 23 23 24 24 25 27 27 32 46 51 55 56 56 56 55 54 54 55 54 52 50 47 46 46 46 46 45 45 45 44 44 43 42 42 43 44 44 44 44 45 45
29 29 27 27 17 16 20 21 19 19 21 23 24 23 26 27 31 46 52 55 57 56 56 55 55 55 54 52 50 48 46 46 46 46 45 45 45 44 43 42 42 41 42 42 43 43 44 45 45
32 28 28 26 24 19 18 17 23 22 23 22 24 26 26 27 30 33 47 53 56 57 57 55 55 55 54 52 51 49 47 47 47 45 45 45 44 43 42 42 40 40 40 41 41 41 42 43 43
32 30 28 23 20 25 22 20 25 24 25 24 25 27 26 27 26 34 42 51 55 56 56 56 55 54 53 53 51 50 49 48 47 46 45 45 43 42 42 41 39 39 39 39 39 40 41 41 41
Wind_Speed
8 11 2 2 5 4 18 12 3 7 7 6 5 7 23 10 12 6 3 10 22 25 23 22 25 23 22 19 17 18 18 16 15 14 13 13 11 11 10 10 9 9 9 10 9 9 9 9 8
7 4 4 1 9 15 19 7 15 17 3 3 6 4 9 11 3 7 14 16 26 22 20 20 23 22 20 19 20 19 18 16 15 13 12 12 11 11 10 10 9 9 10 10 9 9 9 9 10
4 0 4 4 7 24 5 5 21 12 10 6 1 4 2 4 2 18 7 24 25 21 18 19 21 23 23 22 20 19 17 16 15 13 12 12 11 10 10 10 10 10 10 9 9 10 10 10 11
3 2 1 7 19 11 11 7 9 6 10 4 0 4 1 6 9 9 23 25 26 20 18 20 23 23 23 22 20 19 17 16 15 14 12 11 11 10 10 10 9 9 10 10 10 11 11 12 14
3 2 7 7 10 7 12 13 5 14 6 1 3 4 2 4 8 22 21 21 25 21 19 19 23 23 23 22 21 19 17 16 15 14 13 12 11 11 10 10 10 10 10 11 11 12 13 14 14
2 1 4 16 10 8 11 18 14 12 11 4 2 5 1 4 20 19 18 18 20 20 18 18 23 22 21 21 20 20 18 16 15 14 13 13 12 11 11 10 11 11 11 12 11 10 10 11 13
2 1 5 4 7 7 4 13 11 11 14 10 6 4 3 12 15 22 17 17 18 19 19 18 18 19 20 19 19 19 18 16 15 14 14 13 12 13 12 11 12 12 11 11 10 10 10 11 12
2 1 3 2 4 7 6 11 11 11 10 2 5 5 6 16 19 20 20 19 18 18 17 16 15 15 15 15 17 17 17 16 15 15 14 13 12 13 12 10 10 10 9 9 9 9 11 14 13
1 4 6 7 8 8 9 12 7 9 7 4 7 3 10 25 22 25 23 21 19 13 16 16 16 15 16 15 15 15 15 16 16 14 14 12 11 10 9 7 8 8 8 9 10 10 12 15 15
5 7 9 8 10 11 13 15 18 9 15 4 5 6 19 29 26 31 28 25 23 18 17 16 17 17 15 12 14 14 13 13 13 12 9 8 9 8 8 7 8 10 9 11 11 11 12 13 13
3 12 12 14 16 11 17 17 8 8 6 7 6 15 20 17 25 26 26 26 19 17 14 12 15 15 14 13 14 13 13 11 10 11 11 9 6 6 7 8 7 8 9 9 9 10 11 12 13
6 9 10 7 9 6 12 8 8 9 13 18 6 14 21 23 22 25 27 27 22 19 16 14 15 16 13 15 14 13 12 9 10 10 10 10 9 8 8 8 7 8 7 9 8 9 10 12 13
8 10 8 9 13 13 13 14 12 14 18 8 3 9 21 26 19 16 18 21 22 20 16 17 15 16 15 17 14 13 13 12 10 10 9 11 11 9 8 7 7 7 6 8 8 9 11 12 12
4 14 17 14 18 9 13 17 7 7 7 7 4 12 11 21 26 19 17 21 23 20 18 16 17 16 16 16 15 14 13 12 11 10 11 10 11 11 9 8 7 7 7 7 8 9 10 10 12
9 11 13 7 5 6 9 15 15 18 9 14 13 10 13 13 16 22 20 22 23 21 20 20 18 16 17 17 15 14 13 13 12 11 11 11 11 11 10 9 7 6 6 8 9 9 10 10 9
5 2 6 5 9 3 5 13 11 14 11 13 15 16 15 15 21 16 19 18 19 22 25 21 18 18 18 17 16 14 14 13 12 11 11 11 11 11 10 9 8 6 7 8 9 9 9 9 9
3 7 6 10 7 4 1 12 12 9 5 9 10 17 19 21 19 17 16 19 24 26 26 23 20 20 20 17 16 15 14 13 11 10 10 11 11 11 10 9 8 7 7 7 7 5 6 7 7
4 7 7 12 6 20 21 16 17 17 17 22 14 15 16 22 26 18 17 16 17 22 24 26 21 20 17 13 13 11 11 11 10 11 11 11 10 11 10 8 8 8 7 6 5 7 6 4 7
11 12 16 15 17 10 16 22 18 18 14 19 14 12 17 23 22 21 26 20 12 11 19 23 23 20 18 15 15 14 16 13 11 11 12 12 11 11 11 9 8 7 8 7 7 6 6 5 3
8 12 16 16 8 11 20 27 22 19 17 21 18 15 18 19 19 18 19 11 8 15 19 19 20 23 22 17 16 8 12 8 9 11 11 13 13 12 11 11 10 9 8 6 6 6 4 3 2
12 12 13 17 13 11 13 17 8 6 16 17 19 18 20 26 28 25 24 23 25 28 27 23 23 23 21 18 12 8 11 7 8 11 13 14 14 13 12 11 10 10 8 9 6 6 6 6 1
14 9 12 12 8 7 8 15 7 12 16 17 19 17 23 22 24 27 28 28 33 30 23 25 22 22 18 16 17 18 20 16 16 17 10 15 14 14 12 12 11 11 9 9 8 6 5 6 7
8 3 6 7 9 8 5 7 9 5 9 16 15 19 24 20 25 26 32 33 34 28 25 25 22 17 17 11 17 18 16 16 7 10 16 16 13 13 13 12 12 12 10 10 10 8 8 5 7
2 3 1 1 2 8 6 10 9 5 4 3 5 7 21 22 22 24 25 28 27 23 20 21 23 27 21 19 19 22 23 20 15 17 19 18 13 14 13 12 12 11 11 11 11 9 8 7 6
4 1 5 0 4 9 0 5 18 13 14 13 17 20 13 20 21 22 24 25 25 22 21 21 25 25 27 28 27 27 26 22 25 22 20 20 18 15 18 15 14 12 11 11 10 10 9 8 8
10 8 6 5 4 5 2 9 9 7 9 11 17 15 13 13 19 19 23 27 28 30 29 29 29 27 27 34 36 31 27 20 19 20 19 20 20 19 18 18 16 14 12 11 11 9 9 9 8
6 10 4 2 2 4 6 8 15 13 10 4 7 12 14 10 18 22 21 24 27 29 31 32 31 31 29 33 32 31 29 24 22 20 18 18 16 15 19 18 17 15 14 13 12 11 11 10 9
6 8 4 3 5 6 7 8 16 8 6 4 16 7 10 12 12 17 21 22 25 29 28 29 32 33 32 28 28 25 24 25 22 18 20 18 18 17 18 18 17 15 14 14 13 11 10 11 9
7 7 4 4 5 5 6 7 10 9 6 8 13 4 9 14 16 13 15 19 24 25 25 24 25 27 27 27 27 25 22 22 19 22 23 21 18 21 21 21 20 19 18 15 14 13 12 14 12
11 13 15 9 7 6 2 11 8 11 7 4 5 4 5 11 14 12 9 14 18 24 23 26 26 25 25 23 22 23 20 20 21 21 21 20 22 20 21 20 20 19 18 17 17 16 14 15 15
Wind_Direction
354 335 7 19 199 236 241 227 222 191 212 198 146 175 189 174 164 210 139 149 140 148 153 158 154 159 162 158 157 142 129 122 123 121 116 111 107 104 100 96 93 91 86 83 77 72 66 62 56
351 344 51 96 215 220 242 235 222 229 226 96 130 108 156 192 140 131 134 153 144 145 151 150 154 165 160 151 143 134 128 127 124 120 116 113 111 106 101 97 93 87 83 77 71 66 64 61 60
329 238 157 187 231 226 263 230 236 254 299 274 136 48 121 197 159 153 162 149 142 147 153 152 152 148 153 147 138 135 133 130 126 122 120 115 111 108 104 99 93 88 83 76 73 71 67 64 63
88 70 17 225 221 249 223 263 337 265 253 17 198 160 29 297 166 160 146 145 141 143 150 156 148 145 142 138 140 139 136 133 130 126 122 118 114 109 104 98 95 94 92 88 81 76 71 73 77
64 81 234 248 263 305 311 290 277 288 303 243 343 198 96 1 127 139 147 146 142 143 148 156 150 142 141 144 143 141 139 137 133 130 125 120 115 109 104 101 99 95 92 91 88 79 79 78 75
97 97 236 255 287 310 298 295 295 278 271 235 172 141 116 123 132 144 143 142 141 142 146 150 143 141 144 147 145 144 142 139 136 133 129 126 119 115 111 107 102 98 95 92 83 80 80 77 69
151 148 238 284 320 310 308 337 315 290 268 259 130 176 126 153 152 143 137 135 141 145 145 138 139 142 145 147 146 144 144 140 139 136 130 124 122 117 113 110 103 98 92 86 78 72 75 77 76
165 239 279 286 322 302 292 352 313 314 289 6 109 254 199 174 152 132 132 141 148 152 140 132 134 136 137 141 141 142 139 138 137 135 130 129 119 115 117 104 98 89 81 80 73 66 70 79 93
224 238 240 240 241 257 305 348 319 302 290 306 148 237 280 155 143 137 148 157 158 135 135 130 130 134 138 136 139 137 137 137 133 132 130 123 119 117 110 98 85 83 77 79 80 75 77 81 94
223 227 249 234 258 268 298 316 311 326 316 264 188 173 153 152 161 154 162 169 165 151 148 142 140 144 140 138 142 142 140 142 142 143 138 132 127 126 111 86 79 81 77 73 75 76 79 85 95
221 245 249 260 271 273 292 295 265 294 306 285 246 171 156 168 172 166 165 171 163 156 155 149 145 147 146 147 149 145 144 146 152 153 147 144 136 119 107 97 83 82 75 70 72 78 82 92 104
278 249 249 279 284 290 287 288 286 255 265 284 276 204 162 171 191 173 172 165 159 164 160 159 154 155 152 149 156 151 150 154 158 162 156 150 138 128 113 108 99 89 83 85 86 90 93 93 97
240 275 288 276 279 282 268 267 274 281 284 308 195 205 189 173 183 176 173 159 151 167 163 168 159 162 159 159 162 161 158 158 159 162 161 152 142 136 131 116 103 98 100 96 103 101 98 102 99
296 293 288 290 274 250 262 270 235 241 275 298 189 198 203 184 171 159 163 165 160 166 173 167 170 170 164 168 170 168 160 160 159 161 162 156 148 147 135 122 113 106 108 103 109 110 110 102 104
280 298 314 273 276 267 214 261 244 253 238 274 246 220 194 172 174 174 168 167 164 169 168 176 174 174 172 173 172 169 165 164 161 165 161 156 155 148 136 131 124 121 112 112 106 99 107 107 99
298 322 330 289 335 337 229 285 270 258 223 247 243 226 202 178 187 180 176 162 165 166 173 179 175 176 178 178 175 174 172 170 169 169 163 161 156 148 140 138 139 134 123 122 116 117 104 107 113
345 285 302 313 334 5 344 298 306 331 266 277 271 233 204 187 199 193 182 200 179 177 172 178 173 175 179 177 175 176 174 174 175 172 170 164 159 155 149 151 149 143 130 125 130 106 121 123 125
298 307 288 281 288 322 308 277 282 288 274 267 271 233 191 187 206 199 212 193 180 176 176 171 172 172 172 169 164 165 171 172 177 185 181 171 166 162 156 152 152 150 132 127 126 123 81 125 133
283 273 277 279 285 299 280 287 280 286 274 274 261 233 206 194 196 179 186 163 177 180 173 176 170 169 160 165 169 176 188 183 189 194 190 179 174 171 166 160 155 157 152 153 145 125 117 94 130
262 274 279 292 290 307 294 286 276 259 250 248 246 230 206 187 162 167 168 205 239 213 187 177 178 168 172 177 182 175 176 188 185 193 202 191 184 180 174 172 175 168 153 152 161 156 136 105 156
262 261 275 276 309 299 327 293 253 249 241 248 239 226 211 196 192 200 191 198 215 210 196 192 181 179 179 177 163 130 127 123 181 204 204 202 190 185 182 181 176 172 169 175 175 168 163 153 114
271 246 266 279 304 293 25 298 253 258 255 256 249 231 231 193 197 199 195 201 200 202 200 185 178 177 177 175 180 175 182 186 201 201 193 194 192 188 186 184 180 178 177 180 179 171 174 156 166
238 216 266 275 278 305 276 253 281 242 241 253 254 230 228 212 199 196 196 199 199 197 185 183 171 170 160 205 196 193 192 201 181 174 187 191 194 194 189 186 182 183 182 183 182 177 173 174 172
270 264 241 348 255 267 243 223 283 237 218 232 255 253 226 216 213 206 195 198 198 197 186 175 187 189 177 184 213 210 206 198 189 190 190 194 197 194 195 190 187 187 185 186 187 182 184 186 179
170 141 308 20 205 248 350 215 250 259 255 260 279 290 254 220 213 208 198 198 196 188 182 178 189 192 184 193 213 213 212 204 198 191 190 188 192 197 199 188 186 187 190 191 186 185 187 190 190
181 182 198 264 222 278 309 241 250 271 275 263 263 268 276 238 218 210 203 199 201 198 190 190 194 199 187 201 208 208 208 203 206 196 186 190 197 198 183 187 188 185 185 189 188 193 193 191 195
172 205 205 265 354 271 247 287 286 291 261 340 1 271 274 265 225 211 207 209 199 203 203 196 198 209 200 205 213 211 198 195 204 198 188 189 192 190 181 184 186 185 185 188 187 191 196 190 192
185 159 146 196 238 248 264 265 240 292 248 288 359 344 309 302 264 231 210 210 213 207 207 202 201 205 204 205 212 208 214 196 197 183 192 196 189 183 177 182 185 186 186 185 190 194 195 191 196
177 203 200 186 197 222 285 250 221 241 251 297 324 335 322 320 319 261 235 214 212 208 202 202 208 207 204 207 207 205 197 202 201 195 193 194 192 179 179 182 184 187 186 188 191 200 195 195 193
202 206 181 200 213 233 224 270 257 246 246 253 283 259 287 335 326 315 253 225 207 210 205 203 200 206 210 206 202 204 199 202 208 209 201 184 192 180 179 179 186 186 187 188 191 197 194 199 194